Weather History for Tatalina, AK

Change the Weather History Date:

Sunday, May 11, 2014

  Actual Average Record
Temperature  
Mean Temperature 55 °F -  
Max Temperature 66 °F 48 °F 70 °F (2005)
Min Temperature 44 °F 33 °F 24 °F (2003)
Degree Days  
Heating Degree Days 10    
Growing Degree Days 5 (Base 50)    
Moisture  
Dew Point 29 °F    
Average Humidity 40    
Maximum Humidity 67    
Minimum Humidity 19    
Precipitation  
Precipitation 0.00 in - - ()
Sea Level Pressure  
Sea Level Pressure 30.28 in    
Wind  
Wind Speed 5 mph (ESE)    
Max Wind Speed 9 mph    
Max Gust Speed 15 mph    
Visibility 10 miles    
Events      
Averages and records for this station are not official NWS values.
T = Trace of Precipitation, MM = Missing Value Source: NWS Daily Summary

Daily Weather History Graph

Daily Weather History Graph

Search for Another Location

Airport:

Trip Planner

Search our weather history database for the weather conditions in past years. The results will help you decide how hot, cold, wet, or windy it might be!

Date:

Astronomy

May. 11, 2014 Rise Set
Actual Time 5:33 AM AKDT 11:09 PM AKDT
Civil Twilight 4:16 AM AKDT 12:27 AM AKDT
Nautical Twilight Sun does not rise Sun does not rise
Astronomical Twilight Sun does not rise Sun does not rise
Moon 7:14 PM AKDT (5/11) 4:56 AM AKDT (5/11)
Length of Visible Light 20h 10m
Length of Day
17h 36m
Waxing Gibbous, 90% of the Moon is Illuminated
May 11
Waxing Gibbous
May 14
Full
May 21
Last Quarter
May 28
New
Jun 5
First Quarter

Hourly Weather History & Observations

Time (AKDT) Temp. Windchill Dew Point Humidity Pressure Visibility Wind Dir Wind Speed Gust Speed Precip Events Conditions
12:55 AM 52.0 °F - 33.3 °F 49% 30.30 in 10.0 mi Variable 3.5 mph - N/A   Clear
1:55 AM 49.6 °F - 33.3 °F 53% 30.31 in 10.0 mi ENE 3.5 mph - N/A   Clear
2:55 AM 47.7 °F - 33.8 °F 59% 30.31 in 10.0 mi East 4.6 mph - N/A   Clear
3:55 AM 45.9 °F 43.6 °F 34.0 °F 63% 30.31 in 10.0 mi ESE 4.6 mph - N/A   Clear
4:55 AM 46.2 °F 45.0 °F 34.0 °F 62% 30.31 in 10.0 mi East 3.5 mph - N/A   Clear
5:55 AM 44.6 °F 43.1 °F 34.0 °F 66% 30.31 in 10.0 mi SE 3.5 mph - N/A   Clear
6:55 AM 44.6 °F 42.2 °F 34.2 °F 67% 30.32 in 10.0 mi SE 4.6 mph - N/A   Clear
7:55 AM 46.0 °F 43.1 °F 34.7 °F 65% 30.32 in 10.0 mi ESE 5.8 mph - N/A   Clear
8:55 AM 49.8 °F - 35.8 °F 59% 30.32 in 10.0 mi Variable 4.6 mph - N/A   Clear
9:55 AM 53.6 °F - 33.4 °F 46% 30.32 in 10.0 mi Variable 6.9 mph - N/A   Clear
10:55 AM 55.9 °F - 32.9 °F 42% 30.31 in 10.0 mi East 9.2 mph - N/A   Clear
1:55 PM 62.2 °F - 28.6 °F 28% 30.29 in 10.0 mi East 9.2 mph 15.0 mph N/A   Clear
2:55 PM 63.3 °F - 27.1 °F 25% 30.28 in 10.0 mi ESE 9.2 mph 15.0 mph N/A   Clear
3:55 PM 64.6 °F - 24.4 °F 22% 30.27 in 10.0 mi Variable 6.9 mph - N/A   Clear
4:55 PM 64.6 °F - 25.0 °F 22% 30.26 in 10.0 mi Variable 5.8 mph - N/A   Clear
5:55 PM 66.4 °F - 23.2 °F 19% 30.25 in 10.0 mi Variable 5.8 mph - N/A   Clear
6:55 PM 66.2 °F - 23.4 °F 20% 30.24 in 10.0 mi Variable 4.6 mph - N/A   Clear
7:55 PM 66.0 °F - 23.7 °F 20% 30.24 in 10.0 mi East 3.5 mph - N/A   Clear
8:55 PM 65.5 °F - 23.0 °F 20% 30.23 in 10.0 mi East 3.5 mph - N/A   Clear
9:55 PM 64.2 °F - 24.1 °F 22% 30.24 in 10.0 mi NNE 2.3 mph - N/A   Clear
10:55 PM 62.8 °F - 24.6 °F 23% 30.25 in 10.0 mi WSW 1.2 mph - N/A   Clear
11:55 PM 62.4 °F - 23.7 °F 23% 30.25 in 10.0 mi WNW 3.5 mph - N/A   Clear